Other Public Products
Issued by NWS Grand Forks, ND

Home | Current Version | Previous Version | Text Only | Print | Product List | Glossary Off
Versions: 1 2 3 4 5 6 7 8 9 10 11 12 13 14 15 16 17 18 19 20 21 22 23 24 25 26 27 28 29 30 31 32 33 34 35 36 37 38 39 40 41 42 43 44 45 46 47 48 49 50

000
FPUS83 KFGF 222110
OPUFGF
PRAIRIE TO PINES WEATHER ROUNDUP
NATIONAL WEATHER SERVICE EASTERN NORTH DAKOTA/GRAND FORKS ND
400 PM CDT FRI AUG 22 2014

 **SATELLITE DATA USED TO AUGMENT SKY COVER AT AUTOMATED STATIONS**
 *****  WEATHER ACROSS EASTERN NORTH DAKOTA  *****

CITY           SKY/WX    TMP DP  RH WIND       PRES   REMARKS
GRAND FORKS    CLOUDY    71  64  78 N16       30.01S
GRAND FORKS AF CLOUDY    71  66  84 N13       30.04R
GRAND CITY NWS   N/A     64 N/A N/A N13         N/A
BUXTON         NOT AVBL
DEVILS LAKE    CLOUDY    70  59  68 NE13      30.06S
FARGO          CLOUDY    72  66  81 N10       30.01R
WAHPETON ARPT  CLOUDY    77  66  69 NW9G16    29.99S
$$

 *****  WEATHER ACROSS CENTRAL AND WESTERN NORTH DAKOTA  *****

CITY           SKY/WX    TMP DP  RH WIND       PRES   REMARKS
JAMESTOWN      PTSUNNY   74  65  73 N9        30.03F
BISMARCK       PTSUNNY   74  65  73 NE14      30.04S
MINOT          CLOUDY    64  58  80 NE8       30.10S
MINOT AFB      CLOUDY    66  60  80 NE9       30.10S
GARRISON         N/A     67  62  84 NE10      30.08S
WILLISTON      CLOUDY    67  54  63 E12       30.11S
DICKINSON      CLOUDY    67  61  81 NE12      30.06F
HETTINGER      CLOUDY    72  59  63 VRB5      30.07F
$$

 *****  OTHER OBSERVATIONS NORTHEAST NORTH DAKOTA  *****

CITY           SKY/WX    TMP DP  RH WIND       PRES   REMARKS
WALHALLA         N/A     68  63  83 N14       30.07S
LANGDON        MOCLDY    68  59  73 N12       30.09R
CAVALIER       CLOUDY    68  61  77 N12       30.05S
GRAFTON        MOCLDY    72  63  73 N15       30.03S
CANDO          CLOUDY    66  59  77 NE9       30.10R
FORT TOTTEN    NOT AVBL
ROLLA          CLOUDY    64  63  94 NE10      30.12S
RUGBY          CLOUDY    64  59  82 NE9       30.10R
 ***** THE ABOVE OBSERVATIONS ARE NON NWS ARE NOT QUALITY
        CONTROLLED AND MAY MIS-REPORT RAIN FOR SNOW...
$$

 *****  OTHER OBSERVATIONS SOUTHEAST NORTH DAKOTA *****

CITY           SKY/WX    TMP DP  RH WIND       PRES   REMARKS
COOPERSTOWN    NOT AVBL
VALLEY CITY    MOCLDY    73  70  88 NE12      30.03F
OAKES          NOT AVBL
GWINNER        PTCLDY    77  66  69 N8        30.02F
BUFFALO        NOT AVBL
WYNDMERE       NOT AVBL
 ***** THE ABOVE OBSERVATIONS ARE NON NWS ARE NOT QUALITY
       CONTROLLED AND MAY MIS-REPORT RAIN FOR SNOW...
$$

  *****  WEATHER ACROSS NORTHERN MINNESOTA  *****

CITY           SKY/WX    TMP DP  RH WIND       PRES   REMARKS
FLAG ISLAND    CLOUDY    70  63  78 N3        30.02R
WARROAD        MIX PCPN  70  66  88 NE3       30.03R
ROSEAU         LGT RAIN  68  63  83 NE6       30.02S
HALLOCK        CLOUDY    70  64  83 NW12      30.03R
THF RVR FALLS  CLOUDY    72  66  83 N12       30.01R
HALSTAD          N/A     71  64  81 NW10        N/A
FOSSTON        PTSUNNY   72  66  83 NW9       30.01R
BAUDETTE       PTSUNNY   74  66  76 N6        30.01R
WASKISH        CLOUDY    75  68  78 CALM      30.00R
CROOKSTON      CLOUDY    70  66  88 N10       30.01S
$$
  *****  WEATHER ACROSS CENTRAL AND WEST MINNESOTA  *****

CITY           SKY/WX    TMP DP  RH WIND       PRES   REMARKS
BEMIDJI        PTSUNNY   77  66  68 NE5       29.99S
PARK RAPIDS    PTSUNNY   77  66  68 S6        29.98S
WADENA         PTSUNNY   79  68  69 S6        29.98S
DETROIT LAKES  PTSUNNY   73  68  83 NW13G20   30.02R
MOORHEAD       PTSUNNY   73  72  94 N5        30.02R
FERGUS FALLS   CLOUDY    79  64  61 NW9       29.98S
ELBOW LAKE     FAIR      79  69  73 NW5       29.99S
MORRIS MN      MOSUNNY   84  68  58 W5        29.97F
STAPLES        PTSUNNY   77  64  65 SE3       29.99S
WHEATON        PTSUNNY   77  66  69 CALM      30.00F
$$
  *****  WEATHER ELSEWHERE ACROSS MINNESOTA  *****

CITY           SKY/WX    TMP DP  RH WIND       PRES   REMARKS
DULUTH         CLOUDY    65  61  87 E7        30.01S FOG
INTRNTL FALLS  CLOUDY    74  64  71 N7        30.01R
ELY            CLOUDY    72  64  78 CALM      30.01S
CLOQUET        CLOUDY    68  63  83 E6        30.01S
BRAINERD       PTSUNNY   74  66  76 SE3       29.99F
HIBBING        CLOUDY    75  66  73 CALM      30.00S
ALEXANDRIA     MOSUNNY   83  65  54 CALM      30.00F
SAINT CLOUD    CLOUDY    78  68  71 N3        29.98S
MINNEAPOLIS    CLOUDY    79  68  69 NW7       29.96F
$$

  *****  WEATHER ACROSS SOUTH DAKOTA  *****

CITY           SKY/WX    TMP DP  RH WIND       PRES   REMARKS
SIOUX FALLS    PTSUNNY   83  68  60 E7        29.96F
BROOKINGS      NOT AVBL
WATERTOWN      MOSUNNY   81  68  64 NE8       29.99F
HURON          CLOUDY    84  68  58 N5        29.96S
SISSETON         N/A     79  70  74 N7        29.98F
ABERDEEN       CLOUDY    76  67  73 NE8       30.00S
MITCHELL       LGT RAIN  85  67  54 CALM      29.96S
PIERRE         PTSUNNY   80  66  62 E15       29.97F
MOBRIDGE       PTSUNNY   75  65  70 NE8       30.00S
RAPID CITY     PTSUNNY   73  60  63 E9        30.04F
$$

  *****  SOME WEATHER IN NEARBY STATES *****

CITY           SKY/WX    TMP DP  RH WIND       PRES   REMARKS
GLASGOW MT     PTSUNNY   67  56  67 E21G28    30.09F
GREAT FALLS MT LGT RAIN  55  52  88 NE9       30.12S FOG
CHEYENNE WY    CLOUDY    72  48  42 S13       30.13F
SCOTTSBLUFF NE CLOUDY    76  58  53 SE17G23   30.04F
OMAHA NE       PTSUNNY   89  75  63 E9        29.89S HX  99
DES MOINES IA  CLOUDY    88  77  69 NE7       29.91S HX 100
DAVENPORT IA   SUNNY     85  71  63 SW10      29.93S HX  90
CHICAGO IL     PTSUNNY   85  69  58 W5        29.92S
EAU CLAIRE WI  MOSUNNY   85  70  60 W8        29.93F
LA CROSSE WI   SUNNY     86  75  69 VRB3      29.91F HX  95
$$

  *****  SOME NATIONAL WEATHER *****

CITY           SKY/WX    TMP DP  RH WIND       PRES   REMARKS
LA GUARDIA NY  LGT RAIN  69  60  73 SE9       30.03R
RALEIGH NC     PTSUNNY   83  70  64 W10G20    29.98R THUNDER
ATLANTA GA     MOSUNNY   91  69  48 NW12      30.05F HX  96
NEW ORLEANS LA MOSUNNY   94  68  42 NW5       30.04F HX  98
OKLAHOMA CITY  MOSUNNY  100  64  30 S15       29.94F HX 102
ALBUQUERQUE NM CLOUDY    64  58  80 NE6       30.20F
SALT LAKE CITY TSTM      67  56  67 NW16G36   29.95R
LOS ANGELES CA MOSUNNY   74  63  68 W12       29.96F
BOISE ID       SUNNY     78  35  21 NW13      29.89F
SEATTLE WA     MOSUNNY   72  53  51 N12G21    30.07S
$$

*** WEATHER ACROSS MANITOBA...SASKATCHEWAN AND ONTARIO ***
                ***ONTARIO***

CITY           SKY/WX    TMP DP  RH WIND       PRES   REMARKS
GERALDTON      PTSUNNY   77  61  57 SW6       30.03S
THUNDER BAY    PTSUNNY   72  64  78 NE9       30.02F
SIOUX LOOKOUT  CLOUDY    72  63  73 VRB2      30.03R
TORONTO        MOSUNNY   77  64  65 E6        29.98F
BIG TROUT LK   MOSUNNY   70  59  68 N10       30.04R
PICKLE LAKE    CLOUDY    75  57  53 S8        30.03S
DRYDEN         CLOUDY    72  63  73 VRB2      30.03S
KENORA         PTSUNNY   72  63  73 VRB3      30.03F
$$
                *** MANITOBA***

CITY           SKY/WX    TMP DP  RH WIND       PRES   REMARKS
BRANDON        CLOUDY    66  57  72 NE13      30.12S
DAUPHIN        LGT RAIN  61  57  88 N12G20    30.17S
ISLAND LAKE    LGT RAIN  54  52  94 NE8       30.18R FOG
PILOT MOUND      N/A     63  57  82 NE12G18     N/A
THE PAS        PTSUNNY   64  52  63 NE8       30.24R
THOMPSON       PTSUNNY   61  48  63 NE10      30.25S
WINNIPEG       CLOUDY    66  61  82 N12       30.07R
LYNN LAKE      CLOUDY    55  45  67 MISG      30.33R
CHURCHILL      CLOUDY    50  43  76 N16       30.33R
GILLAM         CLOUDY    52  48  87 NE21      30.26R
$$
                ***SASKATCHEWAN***

CITY           SKY/WX    TMP DP  RH WIND       PRES   REMARKS
ESTEVAN        CLOUDY    66  54  63 NE9       30.14S
KINDERSLEY     CLOUDY    61  43  51 NE12G18   30.27S
LLOYDMINSTER   PTSUNNY   57  37  47 N8        30.33S
PRINCE ALBERT  PTSUNNY   64  50  59 N8        30.25S
REGINA         PTSUNNY   68  52  56 NE13G18   30.17F
YORKTON        CLOUDY    63  54  72 N8        30.20S


USA.gov is the U.S. government's official web portal to all federal, state and local government web resources and services.